Regional Weather Roundup
Issued by NWS Northern Indiana

Home | Current Version | Previous Version | Text Only | Print | Product List | Glossary Off
Versions: 1 2 3 4 5 6 7 8 9 10 11 12 13 14 15 16 17 18 19 20 21 22 23 24 25 26 27 28 29 30 31 32 33 34 35 36 37 38 39 40 41 42 43 44 45 46 47 48 49 50

000
ASUS43 KIWX 261410
RWRIWX

KIWX WEATHER ROUNDUP
NATIONAL WEATHER SERVICE NORTHERN INDIANA
1000 AM EDT TUE SEP 26 2017

NOTE: "FAIR" INDICATES FEW OR NO CLOUDS BELOW 12,000 FEET WITH NO
SIGNIFICANT WEATHER AND/OR OBSTRUCTIONS TO VISIBILITY.

* THESE STATIONS ARE NOT UNDER NWS QUALITY CONTROL. THEY ALSO MAY NOT
  REPORT WEATHER SUCH AS PRECIPITATION OR FOG.

INZ001>027-261500-
NORTHERN INDIANA

CITY           SKY/WX    TMP DP  RH WIND       PRES   REMARKS
GARY*          MOSUNNY   75  63  64 SW5       29.98R
VALPARAISO     MOSUNNY   75  65  70 CALM      30.00R
MICHIGAN CITY* PTSUNNY   75  63  64 CALM      29.99R
LAPORTE*       MOSUNNY   73  64  72 W3        30.00S
KNOX*          MOSUNNY   72  63  73 S6        29.99S
SOUTH BEND     SUNNY     73  64  73 SW5       30.00R
ELKHART*       SUNNY     73  63  68 CALM      30.00S
GOSHEN         SUNNY     74  63  68 S7        30.01R
MONTICELLO*    MOSUNNY   74  65  72 S6        30.00S
LOGANSPORT*    SUNNY     73  64  73 SW6       30.03R
WARSAW*        SUNNY     72  64  78 CALM      30.01S
AUBURN*        SUNNY     73  64  73 CALM      30.03S
FORT WAYNE     MOSUNNY   75  66  73 SW6       30.03S
HUNTINGTON*    SUNNY     74  66  75 S5        30.02S
PERU/GRISSOM   SUNNY     77  64  65 VRB2      29.99F

$$
INZ028>050-261500-
CENTRAL INDIANA

CITY           SKY/WX    TMP DP  RH WIND       PRES   REMARKS
KOKOMO*        SUNNY     75  67  76 S6        30.03S
MUNCIE*        SUNNY     80  65  59 SW5       30.04S
INDIANAPOLIS   SUNNY     77  66  68 SW3       30.03S

$$
MIZ043>046-050>051-056>058-064>065-071>073-077>080-261500-
SOUTHWEST LOWER MICHIGAN

CITY           SKY/WX    TMP DP  RH WIND       PRES   REMARKS
BATTLE CREEK   SUNNY     75  63  66 SW6       30.01S
BENTON HARBOR  MOSUNNY   75  62  64 S3        29.97S
COLDWATER*     SUNNY     76  63  64 CALM      30.01S
HILLSDALE*     CLOUDY    75  63  64 CALM      30.02S
HOLLAND        SUNNY     75  60  59 S7        29.97S
GRAND RAPIDS   MOSUNNY   76  61  59 SE5       29.98S
KALAMAZOO      SUNNY     73  61  65 S8        30.00S
STURGIS*       SUNNY     73  63  69 S6        30.01S
THREE RIVERS*  FAIR      74  63  67 S7        30.01S

$$
OHZ001>008-015>018-024>025-261500-
NORTHWEST OHIO

CITY           SKY/WX    TMP DP  RH WIND       PRES   REMARKS
WAUSEON*       FAIR      75  64  69 SW5       30.02S
DEFIANCE       SUNNY     73  63  70 SW5       30.02S
FINDLAY        SUNNY     77  63  61 SW6       30.02S
TOLEDO EXPRESS SUNNY     75  66  73 SW3       30.01S
TOLEDO METCALF SUNNY     76  64  66 W7        30.02S
LIMA           SUNNY     76  65  68 SW6       30.04S

$$
AND FOR LAKE MICHIGAN COASTAL AND OPEN LAKE BUOY OBSERVATIONS

STATION/POSITION TEMP    WIND        PRES    VSBY  WAVE
                 AIR SEA DIR/SP/G                  HT/PER
                 (F)     (DEG/KT/KT) (MB)    (MI)  (FT/S)
CALUMET HARBOR    77     230/  4/  8 1014.2R
MICHIGAN CITY     76     180/  7/  9   N/A
BURNS HARBOR      75     190/  6/  8 1015.2S
SAINT JOSEPH      76     170/  3/  8 1015.2
SOUTH LAKE BUOY   72 71  170/  8/  8 1014.1R         1
4 MI NW BRIDGMAN  72 71  200/  6/  6 1014.7          1
MICHIGAN CITY     72 71  190/  6/  8   N/A           1

$$
&&



USA.gov is the U.S. government's official web portal to all federal, state and local government web resources and services.